BANGABANDHUSAT-1

Last updated on Wed Jun 24 2026 00:03:08 GMT+0000 (Coordinated Universal Time)

1 43463U 18044A 26173.05531372 -.00000362 00000+0 00000+0 0 9992 2 43463 0.0397 93.4106 0001974 6.7391 309.1046 1.00272646 29755
UTC large
Height (km)
Speed (km/s)
/
Latitude / Longitude
Inclination (degrees)
Orbital Period (minutes)
Azimuth
Elevation
Range (km)
Doppler Factor

Next 0 passes for location: London (51.5072 / 0.1276)

No passes found over London.
BANGABANDHUSAT-1